Tracking 23758 objects as of 28-Oct-2021
HD Live streaming from Space Station
objects crossing your sky now

SL-8 DEB

Track SL-8 DEB now!
10-day predictions


NORAD ID: 39693
Int'l Code: 1991-009DG
Perigee: 1,493.3 km
Apogee: 1,698.7 km
Inclination: 74.0 °
Period: 118.0 minutes
Semi major axis: 7967 km
RCS: 0.018 m2 (small)
Launch date: February 12, 1991
Source: Commonwealth of Independent States (former USSR) (CIS)
Launch site: PLESETSK MISSILE AND SPACE COMPLEX (PKMTR)

Note: This is SATELLITE DEBRIS
aabbcc
Your satellite tracking list
Your tracking list is empty




NASA's NSSDC Master Catalog

Two Line Element Set (TLE):
1 39693U 91009DG  21298.87437186 -.00000017  00000-0 -24934-4 0  9991
2 39693  74.0304 131.1573 0128911 161.0144 199.5761 12.20841465335721
Source of the keplerian elements: AFSPC